Location: Degersen
(52.2871°N, 9.5716°E)
Time: 21:08:10
(UTC+00:00)

SL-8 Rocket - Pass Details

Date: 20 January 2026
Orbit: 955 x 990 km, 82.9° (Epoch: 15 February)

Event Time Altitude Azimuth Distance (km) Brightness Sun altitude
Rises 05:46:26 0° 193° (SSW) 3,686 7.1 -13.7°
Reaches altitude 10° 05:48:57 10° 194° (SSW) 2,739 6.4 -13.4°
Maximum altitude 05:55:15 78° 281° (W) 1,009 4.0 -12.4°
Drops below altitude 10° 06:01:32 10° 8° (N) 2,736 6.3 -11.5°
Sets 06:04:04 0° 10° (N) 3,682 6.9 -11.2°
